Regional Weather Roundup
Issued by NWS State College, PA

Home | Current Version | Previous Version | Graphics & Text | Print | Product List | Glossary On
Versions: 1 2 3 4 5 6 7 8 9 10 11 12 13 14 15 16 17 18 19 20 21 22 23 24 25 26 27 28 29 30 31 32 33 34 35 36 37 38 39 40 41 42 43 44 45 46 47 48 49 50
000
ASUS41 KCTP 061803
RWRCTP

REGIONAL WEATHER ROUNDUP
NATIONAL WEATHER SERVICE STATE COLLEGE PA
200 PM EDT WED MAY 06 2015

Note: "fair" indicates few or no clouds below 12,000 feet with no
significant weather and/or obstructions to visibility.

* = STATION THAT DOES NOT REPORT PRECIPITATION /E.G. RAIN...SNOW...ETC/
    THUNDER OR FOG.

PAZ002>004-007>009-013>016-020>023-029>032-061900-
WESTERN PENNSYLVANIA

CITY           SKY/WX    TMP DP  RH WIND       PRES   REMARKS
ERIE           PTSUNNY   61  53  75 NW3       30.22F HAZE
MEADVILLE      CLOUDY    69  59  70 VRB3      30.23S
FRANKLIN*      PTSUNNY   70  57  64 NE3       30.23F
NEW CASTLE     FAIR      81  61  50 NW3       30.19F
BEAVER COUNTY  MOSUNNY   79  59  50 W6        30.19F
BUTLER*        MOSUNNY   79  59  50 W7        30.20F
PITTSBURGH INT PTSUNNY   81  56  42 W15G24    30.18F
PITTSBURGH     MOSUNNY   81  52  36 W10G17    30.18F
INDIANA*       PTSUNNY   77  57  50 NW8       30.22F
LATROBE        PTSUNNY   79  57  47 W9G18     30.20F
WASHINGTON CO* PTSUNNY   81  55  41 W12       30.21F
$$

PAZ004>006-010>012-017>019-024>028-033>037-041-042-045-046-049>053-061900-
CENTRAL PENNSYLVANIA

CITY           SKY/WX    TMP DP  RH WIND       PRES   REMARKS
BRADFORD       CLOUDY    55  53  93 E6        30.27S
DUBOIS         CLOUDY    69  58  67 NE6       30.23F
CLEARFIELD     CLOUDY    62  57  83 NE9       30.25F
JOHNSTOWN      PTSUNNY   75  53  46 W12G18    30.22F
ALTOONA        MOSUNNY   76  59  55 E7        30.21F
STATE COLLEGE  CLOUDY    61  57  88 NE9       30.26F HAZE
WILLIAMSPORT   LGT RAIN  59  53  80 NE8       30.27F
SELINSGROVE    LGT RAIN  61  58  90 NE5       30.28S FOG
FT INDIANTOWN  NOT AVBL
CAPITAL CITY   MOSUNNY   70  53  54 VRB6      30.24F
HARRISBURG     PTSUNNY   72  54  53 E7        30.23F
YORK           PTSUNNY   72  54  53 E9        30.23F
$$

PAZ038>040-043-044-047-048-054-055-060>062-067>071-061900-
EASTERN PENNSYLVANIA

CITY           SKY/WX    TMP DP  RH WIND       PRES   REMARKS
SCRANTON       CLOUDY    61  48  62 NE6       30.29F
MOUNT POCONO   CLOUDY    56  46  69 E7        30.30F
ALLENTOWN      CLOUDY    66  50  56 NE7       30.27F
QUAKERTOWN*    CLOUDY    68  46  45 NE3       30.27S
READING        PTSUNNY   71  47  42 NE5       30.24F
LANCASTER      PTSUNNY   70  53  54 E6        30.23F
COATESVILLE    PTCLDY    72  50  46 E8        30.25F
POTTSTOWN      PTSUNNY   71  46  40 NE9       30.26S
BLUE BELL      PTSUNNY   72  46  40 E7        30.24S
DOYLESTOWN     PTSUNNY   68  44  42 NE7       30.25F
WILLOW GROVE   NOT AVBL
NORTH PHILA    LGT RAIN  72  44  36 NE10      30.24F
PHILADELPHIA   PTSUNNY   74  46  36 E5        30.23F
$$


USA.gov is the U.S. government's official web portal to all federal, state and local government web resources and services.